| time (UTC) | temp F | wind direction | speed knots | gust knots | rain 1hr in | rain 24hr in | rain mn in | humidity % | barometer mb |
| 20260905131215 | 64 | 98 | 0.0 | 0.9 | 0.00 | 0.00 | 0.00 | 30 | 1019.9 |
| 20260905130215 | 65 | 98 | 0.0 | 1.7 | 0.00 | 0.00 | 0.00 | 30 | 1019.7 |
| 20260905125215 | 67 | 98 | 0.9 | 1.7 | 0.00 | 0.00 | 0.00 | 27 | 1020.0 |
| 20260905124215 | 67 | 98 | 1.7 | 3.5 | 0.00 | 0.00 | 0.00 | 27 | 1019.9 |
| 20260905123215 | 65 | 56 | 3.5 | 5.2 | 0.00 | 0.00 | 0.00 | 28 | 1019.4 |
| 20260905122215 | 66 | 0 | 2.6 | 4.3 | 0.00 | 0.00 | 0.00 | 28 | 1019.7 |
| 20260905121215 | 66 | 325 | 2.6 | 3.5 | 0.00 | 0.00 | 0.00 | 27 | 1019.5 |
| 20260905120215 | 66 | 341 | 4.3 | 5.2 | 0.00 | 0.00 | 0.00 | 28 | 1019.5 |
| 20260905115215 | 67 | 242 | 0.9 | 0.9 | 0.00 | 0.00 | 0.00 | 27 | 1019.4 |
| 20260905114215 | 67 | 242 | 2.6 | 2.6 | 0.00 | 0.00 | 0.00 | 27 | 1019.8 |
| 20260905113215 | 68 | 236 | 1.7 | 2.6 | 0.00 | 0.00 | 0.00 | 27 | 1019.8 |
| 20260905112215 | 69 | 251 | 1.7 | 2.6 | 0.00 | 0.00 | 0.00 | 26 | 1020.1 |
| 20260905111215 | 69 | 230 | 2.6 | 3.5 | 0.00 | 0.00 | 0.00 | 25 | 1020.0 |
| 20260905110215 | 70 | 193 | 4.3 | 7.8 | 0.00 | 0.00 | 0.00 | 25 | 1019.9 |
| 20260905105215 | 70 | 195 | 5.2 | 7.0 | 0.00 | 0.00 | 0.00 | 25 | 1020.0 |
| 20260905104215 | 70 | 193 | 5.2 | 8.7 | 0.00 | 0.00 | 0.00 | 25 | 1020.1 |
| 20260905103215 | 70 | 182 | 4.3 | 7.8 | 0.00 | 0.00 | 0.00 | 25 | 1019.9 |
| 20260905102215 | 71 | 184 | 7.0 | 10.4 | 0.00 | 0.00 | 0.00 | 25 | 1019.8 |
| 20260905101215 | 71 | 204 | 3.5 | 5.2 | 0.00 | 0.00 | 0.00 | 25 | 1019.9 |
| 20260905100235 | 72 | 201 | 4.3 | 7.8 | 0.00 | 0.00 | 0.00 | 25 | 1020.0 |
| 20260905095215 | 72 | 189 | 6.1 | 9.6 | 0.00 | 0.00 | 0.00 | 26 | 1020.1 |
| 20260905094217 | 72 | 186 | 2.6 | 7.8 | 0.00 | 0.00 | 0.00 | 27 | 1019.7 |
| 20260905093216 | 72 | 182 | 5.2 | 8.7 | 0.00 | 0.00 | 0.00 | 28 | 1019.7 |
| 20260905092217 | 72 | 164 | 7.0 | 12.2 | 0.00 | 0.00 | 0.00 | 29 | 1019.7 |
| 20260905091215 | 72 | 160 | 3.5 | 7.0 | 0.00 | 0.00 | 0.00 | 30 | 1019.7 |
| 20260905090237 | 73 | 159 | 4.3 | 9.6 | 0.00 | 0.00 | 0.00 | 30 | 1019.9 |
| 20260905085217 | 73 | 192 | 5.2 | 8.7 | 0.00 | 0.00 | 0.00 | 30 | 1020.0 |
| 20260905084217 | 73 | 192 | 4.3 | 5.2 | 0.00 | 0.00 | 0.00 | 30 | 1019.8 |
| 20260905083217 | 73 | 179 | 7.8 | 14.8 | 0.00 | 0.00 | 0.00 | 30 | 1019.7 |
| 20260905082216 | 74 | 190 | 7.0 | 13.9 | 0.00 | 0.00 | 0.00 | 29 | 1019.7 |
| 20260905081216 | 74 | 174 | 3.5 | 8.7 | 0.00 | 0.00 | 0.00 | 30 | 1019.4 |
| 20260905080216 | 74 | 192 | 5.2 | 8.7 | 0.00 | 0.00 | 0.00 | 30 | 1019.4 |
| 20260905075217 | 74 | 190 | 3.5 | 7.0 | 0.00 | 0.00 | 0.00 | 30 | 1019.2 |
| 20260905074216 | 73 | 192 | 6.1 | 11.3 | 0.00 | 0.00 | 0.00 | 30 | 1019.2 |
| 20260905073257 | 73 | 190 | 5.2 | 9.6 | 0.00 | 0.00 | 0.00 | 31 | 1019.0 |
| 20260905072236 | 73 | 211 | 5.2 | 7.0 | 0.00 | 0.00 | 0.00 | 31 | 1018.9 |
| 20260905071237 | 73 | 224 | 4.3 | 6.1 | 0.00 | 0.00 | 0.00 | 30 | 1018.3 |
| 20260905070216 | 73 | 191 | 5.2 | 9.6 | 0.00 | 0.00 | 0.00 | 31 | 1018.4 |
| 20260905065216 | 74 | 201 | 3.5 | 7.0 | 0.00 | 0.00 | 0.00 | 31 | 1018.6 |
| 20260905064216 | 74 | 194 | 2.6 | 4.3 | 0.00 | 0.00 | 0.00 | 30 | 1018.0 |
| 20260905063236 | 75 | 198 | 4.3 | 8.7 | 0.00 | 0.00 | 0.00 | 29 | 1017.8 |
| 20260905062216 | 75 | 188 | 4.3 | 10.4 | 0.00 | 0.00 | 0.00 | 29 | 1017.6 |
| 20260905060216 | 75 | 200 | 9.6 | 13.9 | 0.00 | 0.00 | 0.00 | 29 | 1017.3 |
| 20260905055216 | 75 | 191 | 4.3 | 8.7 | 0.00 | 0.00 | 0.00 | 29 | 1017.2 |
| 20260905054215 | 75 | 177 | 7.0 | 13.9 | 0.00 | 0.00 | 0.00 | 29 | 1016.9 |
| 20260905053216 | 76 | 183 | 6.1 | 9.6 | 0.00 | 0.00 | 0.00 | 29 | 1017.3 |
| 20260905052216 | 75 | 191 | 9.6 | 14.8 | 0.00 | 0.00 | 0.00 | 28 | 1016.9 |
| 20260905051216 | 76 | 195 | 2.6 | 5.2 | 0.00 | 0.00 | 0.00 | 27 | 1016.9 |
| 20260905050215 | 76 | 210 | 4.3 | 8.7 | 0.00 | 0.00 | 0.00 | 27 | 1016.8 |
| 20260905045236 | 76 | 202 | 6.1 | 11.3 | 0.00 | 0.00 | 0.00 | 26 | 1016.8 |
| 20260905044215 | 76 | 195 | 3.5 | 9.6 | 0.00 | 0.00 | 0.00 | 26 | 1016.7 |
| 20260905043215 | 77 | 202 | 6.1 | 8.7 | 0.00 | 0.00 | 0.00 | 26 | 1017.0 |
| 20260905042235 | 76 | 186 | 7.8 | 14.8 | 0.00 | 0.00 | 0.00 | 26 | 1016.7 |
| 20260905041215 | 75 | 200 | 2.6 | 7.8 | 0.00 | 0.00 | 0.00 | 26 | 1016.4 |
| 20260905040215 | 75 | 190 | 1.7 | 3.5 | 0.00 | 0.00 | 0.00 | 26 | 1016.4 |
| 20260905035215 | 75 | 198 | 2.6 | 4.3 | 0.00 | 0.00 | 0.00 | 26 | 1016.1 |
| 20260905034215 | 76 | 174 | 1.7 | 4.3 | 0.00 | 0.00 | 0.00 | 25 | 1015.6 |
| 20260905033215 | 76 | 196 | 3.5 | 5.2 | 0.00 | 0.00 | 0.00 | 25 | 1015.7 |
| 20260905032215 | 76 | 186 | 2.6 | 5.2 | 0.00 | 0.00 | 0.00 | 25 | 1015.5 |
| 20260905031215 | 77 | 198 | 3.5 | 6.1 | 0.00 | 0.00 | 0.00 | 25 | 1015.4 |
| 20260905030235 | 77 | 208 | 5.2 | 7.0 | 0.00 | 0.00 | 0.00 | 25 | 1015.4 |
| 20260905025235 | 78 | 200 | 1.7 | 3.5 | 0.00 | 0.00 | 0.00 | 26 | 1015.5 |
| 20260905024215 | 79 | 188 | 5.2 | 7.0 | 0.00 | 0.00 | 0.00 | 25 | 1015.2 |
| 20260905023215 | 79 | 196 | 7.0 | 7.8 | 0.00 | 0.00 | 0.00 | 25 | 1015.1 |
| 20260905022235 | 79 | 215 | 4.3 | 6.1 | 0.00 | 0.00 | 0.00 | 25 | 1015.0 |
| 20260905021215 | 80 | 201 | 6.1 | 10.4 | 0.00 | 0.00 | 0.00 | 24 | 1014.6 |
| 20260905020215 | 80 | 179 | 6.1 | 8.7 | 0.00 | 0.00 | 0.00 | 25 | 1014.4 |
| 20260905015215 | 81 | 179 | 5.2 | 11.3 | 0.00 | 0.00 | 0.00 | 24 | 1014.7 |
| 20260905014215 | 81 | 178 | 4.3 | 10.4 | 0.00 | 0.00 | 0.00 | 24 | 1014.4 |
| 20260905013215 | 82 | 190 | 7.8 | 14.8 | 0.00 | 0.00 | 0.00 | 23 | 1014.4 |
| 20260905012215 | 82 | 182 | 8.7 | 17.4 | 0.00 | 0.00 | 0.00 | 23 | 1014.4 |
| 20260905011215 | 83 | 199 | 7.0 | 12.2 | 0.00 | 0.00 | 0.00 | 23 | 1014.6 |
| 20260905010215 | 83 | 191 | 12.2 | 19.1 | 0.00 | 0.00 | 0.00 | 23 | 1014.6 |
| 20260905005215 | 83 | 187 | 8.7 | 18.2 | 0.00 | 0.00 | 0.00 | 23 | 1014.7 |
| 20260905004215 | 84 | 214 | 10.4 | 20.0 | 0.00 | 0.00 | 0.00 | 22 | 1015.0 |
| 20260905003215 | 84 | 204 | 13.0 | 20.9 | 0.00 | 0.00 | 0.00 | 22 | 1015.0 |
| 20260905002215 | 84 | 202 | 11.3 | 19.1 | 0.00 | 0.00 | 0.00 | 22 | 1015.1 |
| 20260905001215 | 84 | 200 | 11.3 | 21.7 | 0.00 | 0.00 | 0.00 | 21 | 1015.1 |
| 20260905000218 | 84 | 193 | 13.0 | 19.1 | 0.00 | 0.00 | 0.00 | 21 | 1015.1 |
| 20260904235315 | 84 | 198 | 10.4 | 20.9 | 0.00 | 0.00 | 0.00 | 21 | 1015.0 |
| 20260904234216 | 84 | 194 | 14.8 | 20.9 | 0.00 | 0.00 | 0.00 | 20 | 1014.7 |
| 20260904233217 | 85 | 201 | 13.9 | 21.7 | 0.00 | 0.00 | 0.00 | 20 | 1014.9 |
| 20260904232215 | 85 | 196 | 12.2 | 20.9 | 0.00 | 0.00 | 0.00 | 19 | 1014.8 |
| 20260904231237 | 85 | 188 | 13.9 | 20.9 | 0.00 | 0.00 | 0.00 | 19 | 1015.3 |
| 20260904230216 | 85 | 189 | 12.2 | 22.6 | 0.00 | 0.00 | 0.00 | 19 | 1015.2 |
| 20260904225217 | 84 | 198 | 12.2 | 19.1 | 0.00 | 0.00 | 0.00 | 18 | 1015.3 |
| 20260904224217 | 85 | 216 | 13.9 | 18.2 | 0.00 | 0.00 | 0.00 | 18 | 1015.7 |
| 20260904223217 | 85 | 193 | 13.9 | 24.3 | 0.00 | 0.00 | 0.00 | 18 | 1015.7 |
| 20260904222217 | 85 | 200 | 11.3 | 19.1 | 0.00 | 0.00 | 0.00 | 18 | 1015.8 |
| 20260904221217 | 84 | 195 | 14.8 | 20.9 | 0.00 | 0.00 | 0.00 | 18 | 1015.7 |
| 20260904220217 | 84 | 197 | 10.4 | 17.4 | 0.00 | 0.00 | 0.00 | 18 | 1015.9 |
| 20260904215217 | 84 | 186 | 13.0 | 23.5 | 0.00 | 0.00 | 0.00 | 18 | 1016.1 |
| 20260904214216 | 84 | 189 | 8.7 | 18.2 | 0.00 | 0.00 | 0.00 | 17 | 1016.1 |
| 20260904213217 | 84 | 204 | 13.0 | 20.0 | 0.00 | 0.00 | 0.00 | 18 | 1016.2 |
| 20260904212216 | 84 | 192 | 11.3 | 20.9 | 0.00 | 0.00 | 0.00 | 18 | 1016.3 |
| 20260904211216 | 83 | 180 | 13.0 | 21.7 | 0.00 | 0.00 | 0.00 | 18 | 1016.1 |
| 20260904210217 | 83 | 174 | 10.4 | 20.9 | 0.00 | 0.00 | 0.00 | 17 | 1016.2 |
| 20260904205237 | 83 | 194 | 8.7 | 18.2 | 0.00 | 0.00 | 0.00 | 17 | 1016.4 |
| 20260904204216 | 83 | 181 | 9.6 | 17.4 | 0.00 | 0.00 | 0.00 | 18 | 1016.7 |
| 20260904203216 | 83 | 186 | 8.7 | 16.5 | 0.00 | 0.00 | 0.00 | 17 | 1016.9 |
| 20260904202216 | 82 | 216 | 9.6 | 17.4 | 0.00 | 0.00 | 0.00 | 18 | 1016.6 |
| 20260904201216 | 82 | 205 | 8.7 | 19.1 | 0.00 | 0.00 | 0.00 | 18 | 1016.6 |
| 20260904200216 | 82 | 190 | 13.0 | 20.9 | 0.00 | 0.00 | 0.00 | 17 | 1016.7 |
| 20260904195216 | 82 | 200 | 11.3 | 22.6 | 0.00 | 0.00 | 0.00 | 17 | 1016.8 |
| 20260904194216 | 81 | 194 | 13.0 | 20.9 | 0.00 | 0.00 | 0.00 | 17 | 1017.5 |
| 20260904193216 | 81 | 205 | 13.9 | 21.7 | 0.00 | 0.00 | 0.00 | 19 | 1017.8 |
| 20260904192216 | 81 | 205 | 10.4 | 17.4 | 0.00 | 0.00 | 0.00 | 19 | 1018.0 |
| 20260904191216 | 81 | 227 | 13.0 | 22.6 | 0.00 | 0.00 | 0.00 | 19 | 1017.7 |
| 20260904190256 | 80 | 180 | 12.2 | 22.6 | 0.00 | 0.00 | 0.00 | 19 | 1017.8 |
| 20260904185216 | 80 | 187 | 12.2 | 17.4 | 0.00 | 0.00 | 0.00 | 19 | 1017.9 |
| 20260904184216 | 80 | 196 | 7.0 | 15.6 | 0.00 | 0.00 | 0.00 | 21 | 1018.5 |
| 20260904183216 | 79 | 200 | 10.4 | 23.5 | 0.00 | 0.00 | 0.00 | 20 | 1018.3 |
| 20260904182216 | 79 | 171 | 9.6 | 14.8 | 0.00 | 0.00 | 0.00 | 21 | 1018.6 |
| 20260904181216 | 78 | 197 | 15.6 | 24.3 | 0.00 | 0.00 | 0.00 | 22 | 1018.4 |
| 20260904180216 | 78 | 174 | 8.7 | 19.1 | 0.00 | 0.00 | 0.00 | 22 | 1018.5 |
| 20260904175216 | 78 | 188 | 10.4 | 19.1 | 0.00 | 0.00 | 0.00 | 22 | 1018.6 |
| 20260904174236 | 78 | 198 | 12.2 | 22.6 | 0.00 | 0.00 | 0.00 | 25 | 1018.9 |
| 20260904173216 | 77 | 178 | 9.6 | 20.0 | 0.00 | 0.00 | 0.00 | 27 | 1018.7 |
| 20260904172216 | 77 | 176 | 12.2 | 27.8 | 0.00 | 0.00 | 0.00 | 26 | 1018.6 |
| 20260904171216 | 76 | 185 | 8.7 | 19.1 | 0.00 | 0.00 | 0.00 | 27 | 1018.7 |
| 20260904170216 | 75 | 155 | 8.7 | 13.0 | 0.00 | 0.00 | 0.00 | 28 | 1018.3 |
| 20260904165216 | 75 | 132 | 7.0 | 9.6 | 0.00 | 0.00 | 0.00 | 31 | 1018.4 |
| 20260904164216 | 75 | 149 | 8.7 | 17.4 | 0.00 | 0.00 | 0.00 | 31 | 1018.7 |
| 20260904163236 | 75 | 178 | 11.3 | 24.3 | 0.00 | 0.00 | 0.00 | 32 | 1018.7 |
| 20260904162216 | 75 | 173 | 7.8 | 13.9 | 0.00 | 0.00 | 0.00 | 30 | 1018.6 |
| 20260904161216 | 75 | 168 | 8.7 | 15.6 | 0.00 | 0.00 | 0.00 | 29 | 1018.8 |
| 20260904160215 | 75 | 167 | 9.6 | 14.8 | 0.00 | 0.00 | 0.00 | 30 | 1018.8 |
| 20260904155236 | 74 | 178 | 8.7 | 15.6 | 0.00 | 0.00 | 0.00 | 31 | 1018.9 |
| 20260904154216 | 73 | 169 | 3.5 | 9.6 | 0.00 | 0.00 | 0.00 | 26 | 1018.4 |
| 20260904153216 | 72 | 147 | 6.1 | 8.7 | 0.00 | 0.00 | 0.00 | 25 | 1018.3 |
| 20260904152215 | 71 | 148 | 6.1 | 8.7 | 0.00 | 0.00 | 0.00 | 25 | 1018.1 |
| 20260904151216 | 71 | 137 | 6.1 | 10.4 | 0.00 | 0.00 | 0.00 | 25 | 1018.1 |
| 20260904150216 | 70 | 162 | 0.9 | 1.7 | 0.00 | 0.00 | 0.00 | 28 | 1017.7 |
| 20260904145215 | 70 | 170 | 1.7 | 4.3 | 0.00 | 0.00 | 0.00 | 28 | 1017.9 |
| 20260904144215 | 70 | 139 | 2.6 | 4.3 | 0.00 | 0.00 | 0.00 | 29 | 1018.1 |
| 20260904143216 | 70 | 97 | 2.6 | 2.6 | 0.00 | 0.00 | 0.00 | 28 | 1018.0 |
| 20260904142215 | 70 | 242 | 0.9 | 1.7 | 0.00 | 0.00 | 0.00 | 25 | 1018.1 |
| 20260904141216 | 69 | 242 | 0.0 | 0.9 | 0.00 | 0.00 | 0.00 | 26 | 1017.9 |
| 20260904140215 | 68 | 0.0 | 0.9 | 0.00 | 0.00 | 0.00 | 26 | 1017.7 | |
| 20260904135216 | 67 | 242 | 0.0 | 0.9 | 0.00 | 0.00 | 0.00 | 28 | 1017.4 |
| 20260904134215 | 66 | 242 | 0.0 | 1.7 | 0.00 | 0.00 | 0.00 | 27 | 1017.6 |
| 20260904133215 | 65 | 242 | 3.5 | 4.3 | 0.00 | 0.00 | 0.00 | 27 | 1017.3 |
| 20260904132215 | 64 | 297 | 0.9 | 3.5 | 0.00 | 0.00 | 0.00 | 27 | 1017.0 |